Regional Weather Roundup
Issued by NWS New Orleans/Baton Rouge, LA

Home | Current Version | Previous Version | Text Only | Print | Product List | Glossary On
Versions: 1 2 3 4 5 6 7 8 9 10 11 12 13 14 15 16 17 18 19 20 21 22 23 24 25 26 27 28 29 30 31 32 33 34 35 36 37 38 39 40 41 42 43 44 45 46 47 48 49 50
450
ASUS44 KLIX 302111
RWRLIX
NEW ORLEANS REGIONAL WEATHER ROUNDUP
NATIONAL WEATHER SERVICE NEW ORLEANS LA
400 PM CDT MON MAR 30 2015

NOTE: "FAIR" INDICATES FEW OR NO CLOUDS BELOW 12,000 FEET WITH NO
      SIGNIFICANT WEATHER AND/OR OBSTRUCTIONS TO VISIBILITY.
      SKY/WX - SKY CONDITION AND SIGNIFICANT WEATHER.
      TMP - AIR TEMPERATURE.     DP    - DEWPOINT TEMPERATURE.
      RH  - RELATIVE HUMIDITY.   PRES  - PRESSURE.
      HI  - HEAT INDEX.          WCI   - WIND CHILL INDEX.

*  THESE STATIONS ARE NOT NWS OR FAA STATIONS AND ARE NOT UNDER
   NWS QUALITY CONTROL.

LAZ038-040-048-061>063-065>067-069-302200-
SOUTHEAST LOUISIANA

CITY           SKY/WX    TMP DP  RH WIND       PRES   REMARKS
N.O. AUDUBON     N/A     81  67  62 MISG        N/A
N.O. INTL ARPT PTSUNNY   82  59  45 SW12      30.14F
N.O. LAKEFRONT SUNNY     81  63  54 NE3       30.15F
SLIDELL        MOSUNNY   81  60  48 SW9       30.14F
BATON ROUGE    PTSUNNY   80  57  45 W9        30.13F
BOOTHVILLE     SUNNY     77  63  61 SW12      30.18F
BELLE CHASSE   MOSUNNY   80  61  52 SW13      30.14F
BOGALUSA*        N/A     85  53  32 W9        30.14F
GALLIANO*      CLEAR     80  62  54 SW14G26   30.17F
NEW ROADS*       N/A     80  58  47 W7        30.13F
GONZALES*        N/A     82  62  50 W10       30.14F
HAMMOND*       MOSUNNY   82  54  36 SW7       30.15F
HOUMA*         PTSUNNY   79  63  57 SW15      30.16F
PORT FOURCHON* CLEAR     77  63  61 SW10      30.21F

$$

MSZ070-080>082-302200-
SOUTHERN MISSISSIPPI

CITY           SKY/WX    TMP DP  RH WIND       PRES   REMARKS
MCCOMB         MOSUNNY   81  55  40 NW9       30.13F
GULFPORT       SUNNY     77  63  61 S12G18    30.13F
BILOXI         SUNNY     76  66  71 SW16      30.13F
PASCAGOULA     SUNNY     78  65  63 SW8G18    30.14F
STENNIS ARPT*  MOSUNNY   82  54  36 MISG      30.14F

$$

COASTAL OBSERVATIONS
LAKE AND NEARSHORE STATIONS

STATION/POSITION TIME  TEMP    WIND        PRES    WAVE
                       AIR SEA DIR/SP/G            HT/PER
                 (UTC) (F)     (DEG/KT/KT) (MB)    (FT/S)
PASCAGOULA       2000   72     210/ 12/ 16 1021.2
WAVELAND YACHT   2000   76 67  200/ 10/ 15 1021.1
GRAND ISLE       2000   76 68  210/  7/ 12 1022.3
SOUTHWEST PASS   2000   82 55  250/  4/  4 1023.3
NEW CANAL        2000   72      70/  5/  5 1022.0
SHELL BEACH      2000   73 70   10/  9/ 12 1021.7

OFFSHORE STATIONS

STATION/POSITION TIME  TEMP    WIND        PRES    WAVE
                       AIR SEA DIR/SP/G            HT/PER
                 (UTC) (F)     (DEG/KT/KT) (MB)    (FT/S)
64 S DAUPHIN ISL 2050   72 72  200/ 12/ 16 1022.6    3/ 5

$$




USA.gov is the U.S. government's official web portal to all federal, state and local government web resources and services.